1507600801.24,107,10.44,73096.3,-8.77,-9.61,-9.57,0,*5B
1507600802.5,108,10.44,73094.5,-8.77,-9.61,-9.57,0,*54
1507600803.77,109,10.44,73094.0,-8.77,-9.61,-9.61,0,*50
1507600805.02,110,10.44,73088.5,-8.77,-9.57,-9.57,0,*58
1507600806.28,111,10.5,73090.0,-8.77,-9.57,-9.57,0,*59
1507600807.52,112,10.5,73090.8,-8.75,-9.53,-9.53,0,*58
1507600808.76,113,10.5,73094.3,-8.75,-9.45,-9.53,0,*5E
1507600809.99,114,10.44,73088.0,-8.75,-9.45,-9.57,0,*5D
1507600811.23,115,10.44,73088.0,-8.75,-9.45,-9.45,0,*5F
1507600812.5,116,10.5,73092.0,-8.77,-9.49,-9.49,0,*5E
1507600813.74,117,10.44,73094.8,-8.75,-9.41,-9.41,0,*5D
1507600814.98,118,10.44,73098.3,-8.75,-9.45,-9.45,0,*52
1507600816.22,119,10.44,73100.0,-8.75,-9.41,-9.45,0,*57
1507600817.46,120,10.5,73102.3,-8.75,-9.45,-9.45,0,*59
1507600818.71,121,10.5,73106.3,-8.75,-9.41,-9.45,0,*5C
1507600819.95,122,10.44,73104.5,-8.75,-9.41,-9.45,0,*5F
1507600821.19,123,10.5,73108.8,-8.75,-9.45,-9.45,0,*5A
1507600822.43,124,10.5,73110.0,-8.75,-9.41,-9.45,0,*59
1507600823.68,125,10.5,73110.0,-8.75,-9.41,-9.45,0,*58
1507600824.92,126,10.5,73110.8,-8.75,-9.41,-9.45,0,*5B
1507600826.19,127,10.5,73114.3,-8.77,-9.45,-9.45,0,*5C
1507600827.43,128,10.5,73116.3,-8.75,-9.45,-9.41,0,*55
1507600828.67,129,10.44,73112.5,-8.75,-9.45,-9.41,0,*54
1507600829.91,130,10.5,73116.8,-8.75,-9.41,-9.41,0,*58
1507600831.15,131,10.44,73110.0,-8.75,-9.45,-9.41,0,*5D
1507600832.39,132,10.5,73110.0,-8.75,-9.41,-9.45,0,*5E
1507600833.66,133,10.44,73110.8,-8.73,-9.41,-9.41,0,*5D
1507600834.92,134,10.5,73112.8,-8.73,-9.41,-9.41,0,*5A
1507600836.16,135,10.44,73106.8,-8.75,-9.45,-9.41,0,*59
1507600837.4,136,10.44,73098.3,-8.75,-9.45,-9.41,0,*5A
1507600838.64,137,10.44,73088.8,-8.75,-9.41,-9.53,0,*5C
1507600839.91,138,10.44,73094.5,-8.77,-9.49,-9.49,0,*52
1507600841.18,139,10.44,73098.5,-8.73,-9.45,-9.45,0,*57
1507600842.45,140,10.44,73092.3,-8.73,-9.41,-9.45,0,*5D
1507600843.71,141,10.5,73098.3,-8.73,-9.45,-9.41,0,*5C
1507600844.95,142,10.44,73094.0,-8.73,-9.45,-9.31,0,*58
1507600846.22,143,10.44,73092.5,-8.73,-9.41,-9.41,0,*5A
1507600847.49,144,10.5,73100.3,-8.73,-9.41,-9.45,0,*59
1507600848.73,145,10.5,73104.0,-8.73,-9.31,-9.41,0,*5B
1507600849.99,146,10.44,73104.5,-8.73,-9.41,-9.41,0,*5F
1507600851.26,147,10.44,73104.5,-8.73,-9.41,-9.41,0,*5E
1507600852.53,148,10.5,73106.3,-8.73,-9.45,-9.45,0,*51
1507600853.8,149,10.5,73110.8,-8.73,-9.41,-9.41,0,*50
1507600855.07,150,10.44,73108.5,-8.73,-9.41,-9.45,0,*5C
1507600856.34,151,10.44,73106.5,-8.73,-9.41,-9.41,0,*59
1507600857.6,152,10.5,73104.5,-8.73,-9.41,-9.41,0,*5A
1507600858.87,153,10.44,73104.3,-8.73,-9.41,-9.41,0,*5B
1507600860.11,154,10.44,73104.8,-8.73,-9.41,-9.31,0,*5B
1507600861.38,155,10.44,73098.8,-8.73,-9.41,-9.41,0,*5D
1507600862.65,156,10.44,73096.3,-8.73,-9.41,-9.41,0,*5E
1507600863.92,157,10.44,73086.3,-8.73,-9.41,-9.53,0,*5C
1507600865.19,158,10.5,73100.8,-8.73,-9.41,-9.45,0,*54
1507600866.45,159,10.5,73096.0,-8.73,-9.45,-9.41,0,*55
1507600867.69,160,10.44,73090.5,-8.71,-9.41,-9.49,0,*51
1507600868.96,161,10.5,73070.8,-8.73,-9.45,-9.45,0,*5A
1507600870.2,162,10.44,73080.5,-8.71,-9.41,-9.49,0,*53
1507600871.47,163,10.44,73080.8,-8.73,-9.45,-9.53,0,*5F
1507600872.74,164,10.44,73082.8,-8.73,-9.45,-9.45,0,*5F
1507600874.0,165,10.5,73088.0,-8.73,-9.45,-9.45,0,*5E
1507600875.25,166,10.44,73090.5,-8.71,-9.41,-9.49,0,*57
1507600876.51,167,10.44,73086.3,-8.73,-9.45,-9.45,0,*5C
1507600877.76,168,10.44,73086.3,-8.71,-9.41,-9.53,0,*52
1507600879.0,169,10.5,73086.8,-8.71,-9.41,-9.53,0,*53
1507600880.27,170,10.5,73090.5,-8.73,-9.53,-9.53,0,*5A
1507600881.54,171,10.5,73092.8,-8.73,-9.45,-9.53,0,*5C
1507600882.8,172,10.44,73092.5,-8.73,-9.53,-9.45,0,*5F
1507600884.06,173,10.5,73096.8,-8.73,-9.53,-9.53,0,*59
1507600885.32,174,10.44,73094.8,-8.73,-9.57,-9.57,0,*5E
1507600886.57,175,10.44,73092.8,-8.73,-9.53,-9.57,0,*5B
1507600887.84,176,10.44,73094.8,-8.73,-9.45,-9.57,0,*5F
1507600889.09,177,10.5,73098.0,-8.73,-9.57,-9.57,0,*5D
1507600890.33,178,10.5,73100.8,-8.71,-9.49,-9.53,0,*5B
1507600891.57,179,10.5,73096.8,-8.71,-9.53,-9.53,0,*51
1507600892.81,180,10.5,73100.8,-8.71,-9.49,-9.53,0,*5C
1507600894.05,181,10.5,73104.8,-8.71,-9.53,-9.53,0,*56
1507600895.29,182,10.5,73110.5,-8.71,-9.49,-9.53,0,*5E
1507600896.52,183,10.5,73110.0,-8.71,-9.53,-9.53,0,*54
1507600897.76,184,10.5,73110.0,-8.71,-9.53,-9.53,0,*53
1507600898.99,185,10.44,73098.3,-8.71,-9.57,-9.61,0,*57
1507600900.25,186,10.44,73096.3,-8.73,-9.57,-9.61,0,*56
1507600901.5,187,10.5,73098.8,-8.73,-9.57,-9.61,0,*57
1507600902.76,188,10.5,73102.5,-8.73,-9.57,-9.57,0,*5D
1507600904.01,189,10.44,73106.8,-8.73,-9.57,-9.57,0,*5C
1507600905.26,190,10.5,73116.5,-8.73,-9.57,-9.57,0,*54
1507600906.52,191,10.5,73118.5,-8.73,-9.57,-9.57,0,*55
1507600907.76,192,10.5,73116.0,-8.71,-9.53,-9.53,0,*54
1507600908.99,193,10.5,73116.5,-8.71,-9.53,-9.53,0,*55
1507600910.23,194,10.44,73100.3,-8.71,-9.53,-9.53,0,*52
1507600911.49,195,10.44,73106.3,-8.73,-9.57,-9.57,0,*51
1507600912.72,196,10.5,73104.8,-8.71,-9.53,-9.57,0,*54
1507600913.95,197,10.5,73096.0,-8.71,-9.53,-9.57,0,*55
1507600915.18,198,10.5,73100.3,-8.71,-9.53,-9.57,0,*5A
1507600916.44,199,10.44,73096.8,-8.73,-9.53,-9.57,0,*59
1507600917.67,200,10.5,73102.0,-8.71,-9.53,-9.53,0,*5C
1507600918.91,201,10.5,73098.5,-8.71,-9.53,-9.53,0,*5D
1507600920.15,202,10.5,73104.8,-8.71,-9.53,-9.53,0,*5E
1507600921.38,203,10.5,73110.8,-8.71,-9.57,-9.49,0,*50
1507600922.61,204,10.5,73110.0,-8.71,-9.57,-9.53,0,*5C
1507600923.87,205,10.44,73100.5,-8.73,-9.61,-9.57,0,*5E
1507600925.1,206,10.5,73100.3,-8.71,-9.57,-9.57,0,*5A
1507600926.32,207,10.5,73100.0,-8.71,-9.57,-9.57,0,*5B
1507600927.55,208,10.5,73100.8,-8.71,-9.57,-9.57,0,*54
1507600928.8,209,10.5,73102.5,-8.73,-9.57,-9.57,0,*57
1507600930.03,210,10.5,73102.5,-8.71,-9.53,-9.57,0,*59
1507600931.27,211,10.5,73106.3,-8.71,-9.53,-9.57,0,*58
1507600932.5,212,10.44,73106.3,-8.71,-9.53,-9.57,0,*5B
1507600933.73,213,10.44,73104.8,-8.71,-9.53,-9.57,0,*5A
1507600934.96,214,10.44,73110.3,-8.71,-9.53,-9.57,0,*5D
1507600936.19,215,10.5,73112.3,-8.71,-9.53,-9.57,0,*5C
1507600937.42,216,10.5,73114.0,-8.71,-9.53,-9.57,0,*5F
1507600938.65,217,10.5,73108.0,-8.71,-9.53,-9.57,0,*5E
1507600939.89,218,10.5,73110.8,-8.73,-9.57,-9.71,0,*53
1507600941.14,219,10.44,73110.5,-8.73,-9.57,-9.61,0,*53
1507600942.38,220,10.44,73110.0,-8.73,-9.57,-9.71,0,*58
1507600943.64,221,10.44,73110.0,-8.73,-9.61,-9.61,0,*5D
1507600944.86,222,10.44,73106.8,-8.71,-9.57,-9.57,0,*5C
1507600946.07,223,10.44,73100.8,-8.71,-9.57,-9.67,0,*5E
1507600947.3,224,10.5,73098.8,-8.71,-9.57,-9.57,0,*5A
1507600948.54,225,10.44,73098.8,-8.73,-9.61,-9.71,0,*58
1507600949.74,226,10.5,73100.0,-8.71,-9.67,-9.57,0,*5B
1507600950.95,227,10.5,73102.5,-8.71,-9.57,-9.67,0,*5A
1507600952.18,228,10.44,73096.8,-8.71,-9.57,-9.57,0,*56
1507600953.38,229,10.5,73088.5,-8.71,-9.57,-9.67,0,*54
1507600954.57,230,10.5,73088.3,-8.71,-9.67,-9.67,0,*5F
1507600955.76,231,10.44,73092.8,-8.71,-9.67,-9.67,0,*5E
1507600956.97,232,10.5,73098.5,-8.71,-9.57,-9.67,0,*5E
1507600958.15,233,10.44,73098.3,-8.71,-9.67,-9.67,0,*5C
1507600959.36,234,10.5,73096.5,-8.71,-9.57,-9.67,0,*58
1507600960.55,235,10.5,73088.0,-8.71,-9.67,-9.67,0,*5A
1507600961.77,236,10.5,73084.8,-8.73,-9.71,-9.75,0,*5F
1507600962.98,237,10.5,73088.5,-8.71,-9.57,-9.71,0,*5C
1507600964.2,238,10.5,73086.8,-8.73,-9.71,-9.75,0,*51
1507600965.42,239,10.44,73072.8,-8.73,-9.71,-9.75,0,*50
1507600966.63,240,10.44,73080.3,-8.73,-9.75,-9.71,0,*5E
1507600967.85,241,10.44,73088.8,-8.73,-9.71,-9.71,0,*5B
1507600969.07,242,10.5,73086.8,-8.73,-9.75,-9.75,0,*58
1507600970.26,243,10.5,73082.8,-8.71,-9.67,-9.71,0,*5C
1507600971.48,244,10.44,73084.5,-8.73,-9.71,-9.75,0,*5A
1507600972.67,245,10.44,73088.8,-8.71,-9.67,-9.67,0,*5D
1507600973.93,246,10.5,73090.5,-8.73,-9.61,-9.61,0,*5C
1507600975.15,247,10.5,73094.8,-8.73,-9.71,-9.71,0,*5D
1507600976.37,248,10.5,73098.3,-8.73,-9.71,-9.71,0,*52
1507600977.59,249,10.5,73094.0,-8.73,-9.71,-9.75,0,*57
1507600978.81,250,10.5,73094.5,-8.73,-9.71,-9.71,0,*5B
1507600980.03,251,10.44,73086.8,-8.73,-9.71,-9.71,0,*5A
1507600981.23,252,10.5,73092.0,-8.71,-9.71,-9.71,0,*5B
1507600982.44,253,10.44,73086.0,-8.73,-9.75,-9.75,0,*58
1507600983.66,254,10.5,73080.5,-8.73,-9.71,-9.75,0,*5B
1507600984.88,255,10.5,73088.8,-8.73,-9.71,-9.71,0,*5E
1507600986.13,256,10.5,73098.5,-8.73,-9.71,-9.61,0,*5C
1507600987.35,257,10.5,73100.0,-8.73,-9.71,-9.71,0,*5C
1507600988.59,258,10.44,73094.5,-8.73,-9.61,-9.71,0,*52
1507600989.82,259,10.5,73102.5,-8.73,-9.61,-9.71,0,*53
1507600991.06,260,10.44,73094.0,-8.73,-9.61,-9.71,0,*59
1507600992.32,261,10.44,73104.0,-8.73,-9.61,-9.61,0,*59
1507600993.58,262,10.5,73096.0,-8.73,-9.61,-9.61,0,*5A
1507600994.84,263,10.44,73092.8,-8.73,-9.61,-9.61,0,*5B
1507600996.1,264,10.44,73094.0,-8.73,-9.61,-9.61,0,*5C
1507600997.36,265,10.5,73090.5,-8.73,-9.61,-9.61,0,*5D
1507600998.57,266,10.44,73092.5,-8.71,-9.67,-9.57,0,*5F
1507600999.83,267,10.5,73092.0,-8.73,-9.61,-9.61,0,*5F
1507601001.09,268,10.5,73088.8,-8.73,-9.61,-9.61,0,*50
1507601002.32,269,10.44,73090.3,-8.71,-9.57,-9.53,0,*57
1507601003.56,270,10.44,73088.5,-8.71,-9.53,-9.53,0,*5B
1507601004.81,271,10.5,73084.0,-8.73,-9.57,-9.57,0,*58
1507601006.07,272,10.44,73080.5,-8.73,-9.61,-9.57,0,*5E
1507601007.3,273,10.44,73080.8,-8.71,-9.61,-9.57,0,*5D
1507601008.56,274,10.44,73086.0,-8.73,-9.61,-9.57,0,*58
1507601009.79,275,10.5,73084.5,-8.71,-9.57,-9.53,0,*5A
1507601011.05,276,10.5,73084.3,-8.73,-9.61,-9.57,0,*5A
1507601012.28,277,10.5,73082.8,-8.71,-9.57,-9.53,0,*58
1507601013.53,278,10.44,73076.8,-8.73,-9.57,-9.57,0,*51
1507601014.79,279,10.5,73072.8,-8.73,-9.57,-9.57,0,*50
1507601016.04,280,10.44,73072.0,-8.73,-9.57,-9.57,0,*56
1507601017.3,281,10.44,73076.3,-8.73,-9.57,-9.57,0,*57
1507601018.56,282,10.44,73080.0,-8.73,-9.57,-9.53,0,*50
1507601019.79,283,10.44,73080.5,-8.71,-9.53,-9.53,0,*57
1507601021.05,284,10.5,73088.5,-8.73,-9.57,-9.57,0,*52
1507601022.27,285,10.5,73088.8,-8.71,-9.57,-9.57,0,*51
1507601023.53,286,10.44,73088.8,-8.73,-9.57,-9.57,0,*50
1507601024.78,287,10.44,73086.3,-8.73,-9.57,-9.57,0,*51
1507601026.02,288,10.44,73084.8,-8.71,-9.53,-9.53,0,*5C
1507601027.27,289,10.44,73086.3,-8.73,-9.57,-9.61,0,*5A
1507601028.54,290,10.44,73086.0,-8.73,-9.61,-9.61,0,*57
1507601029.76,291,10.5,73086.3,-8.71,-9.57,-9.57,0,*54
1507601031.02,292,10.44,73086.5,-8.73,-9.61,-9.61,0,*55
1507601032.26,293,10.5,73094.8,-8.71,-9.61,-9.61,0,*56
1507601033.52,294,10.5,73088.5,-8.73,-9.61,-9.61,0,*53
1507601034.74,295,10.5,73088.3,-8.71,-9.57,-9.57,0,*50
1507601036.0,296,10.5,73090.5,-8.73,-9.61,-9.61,0,*51
1507601037.23,297,10.44,73086.8,-8.71,-9.57,-9.57,0,*52
1507601038.46,298,10.44,73090.8,-8.71,-9.61,-9.61,0,*5D
1507601039.72,299,10.5,73088.3,-8.73,-9.61,-9.57,0,*5B
1507601040.98,300,10.44,73088.3,-8.73,-9.61,-9.57,0,*5A
1507601042.23,301,10.5,73088.8,-8.73,-9.57,-9.57,0,*5E
1507601043.48,302,10.5,73094.3,-8.73,-9.57,-9.57,0,*5D
1507601044.72,303,10.5,73090.8,-8.71,-9.53,-9.53,0,*5E
1507601045.96,304,10.5,73094.0,-8.71,-9.53,-9.53,0,*59
1507601047.2,305,10.44,73090.0,-8.71,-9.53,-9.53,0,*58
1507601048.46,306,10.5,73090.0,-8.73,-9.57,-9.53,0,*5D
1507601049.7,307,10.5,73082.5,-8.71,-9.53,-9.53,0,*5A
1507601050.93,308,10.5,73078.8,-8.71,-9.53,-9.53,0,*55
1507601052.17,309,10.5,73080.3,-8.71,-9.53,-9.53,0,*54
1507601053.41,310,10.5,73080.3,-8.71,-9.53,-9.53,0,*5C
1507601054.67,311,10.5,73082.3,-8.73,-9.53,-9.57,0,*5B
1507601055.87,312,10.44,73084.5,-8.71,-9.67,-9.57,0,*5D
1507601057.13,313,10.44,73084.0,-8.73,-9.61,-9.57,0,*58
1507601058.36,314,10.5,73088.8,-8.71,-9.57,-9.53,0,*5C
1507601059.6,315,10.44,73088.5,-8.71,-9.57,-9.53,0,*5D
1507601060.83,316,10.5,73090.0,-8.71,-9.53,-9.53,0,*5A
1507601062.07,317,10.5,73088.3,-8.71,-9.53,-9.53,0,*5B
1507601063.31,318,10.44,73084.8,-8.71,-9.53,-9.53,0,*54
1507601064.54,319,10.5,73086.8,-8.71,-9.57,-9.53,0,*51
1507601065.8,320,10.5,73084.5,-8.73,-9.61,-9.57,0,*58
1507601067.03,321,10.5,73090.0,-8.71,-9.57,-9.53,0,*5A
1507601068.27,322,10.44,73090.0,-8.71,-9.57,-9.53,0,*59
1507601069.52,323,10.5,73090.0,-8.73,-9.61,-9.57,0,*5B
1507601070.78,324,10.5,73088.3,-8.73,-9.61,-9.57,0,*5C
1507601072.04,325,10.44,73080.3,-8.73,-9.61,-9.57,0,*5D
1507601073.27,326,10.5,73084.5,-8.71,-9.57,-9.53,0,*5D
1507601074.5,327,10.5,73084.0,-8.71,-9.57,-9.53,0,*5C
1507601075.74,328,10.44,73088.3,-8.71,-9.57,-9.53,0,*53
1507601076.97,329,10.5,73094.3,-8.71,-9.57,-9.53,0,*52
1507601078.21,330,10.44,73088.3,-8.71,-9.57,-9.53,0,*5A
1507601079.44,331,10.44,73084.3,-8.71,-9.53,-9.53,0,*5F
1507601080.68,332,10.5,73088.5,-8.71,-9.53,-9.53,0,*5C
1507601081.92,333,10.5,73094.0,-8.71,-9.53,-9.53,0,*5D
1507601083.15,334,10.5,73092.5,-8.71,-9.57,-9.53,0,*5E
1507601084.39,335,10.5,73090.0,-8.71,-9.57,-9.53,0,*5F
1507601085.64,336,10.44,73078.3,-8.73,-9.61,-9.57,0,*5F
1507601086.88,337,10.5,73074.8,-8.71,-9.57,-9.53,0,*5D
1507601088.11,338,10.5,73070.8,-8.71,-9.57,-9.53,0,*52
1507601089.34,339,10.5,73072.5,-8.71,-9.57,-9.53,0,*53
1507601090.6,340,10.44,73074.3,-8.73,-9.61,-9.57,0,*5E
1507601091.83,341,10.44,73064.5,-8.71,-9.57,-9.57,0,*58
1507601093.06,342,10.44,73062.8,-8.71,-9.57,-9.57,0,*5B
1507601094.28,343,10.44,73064.8,-8.71,-9.57,-9.57,0,*5A
1507601095.49,344,10.5,73068.5,-8.71,-9.57,-9.67,0,*5E
1507601096.72,345,10.5,73072.0,-8.71,-9.57,-9.57,0,*5C
1507601097.94,346,10.5,73078.0,-8.71,-9.57,-9.57,0,*5F
1507601099.17,347,10.44,73068.5,-8.71,-9.57,-9.57,0,*5E
1507601100.4,348,10.5,73074.5,-8.71,-9.53,-9.57,0,*55
1507601101.63,349,10.44,73078.0,-8.71,-9.57,-9.57,0,*50
1507601102.85,350,10.44,73076.8,-8.71,-9.57,-9.57,0,*58
1507601104.09,351,10.5,73072.5,-8.71,-9.53,-9.57,0,*5D
1507601105.32,352,10.44,73074.0,-8.71,-9.53,-9.57,0,*5E
1507601106.55,353,10.44,73076.8,-8.71,-9.53,-9.57,0,*5F
1507601107.78,354,10.5,73086.3,-8.71,-9.53,-9.57,0,*58
1507601108.99,355,10.44,73078.0,-8.71,-9.53,-9.67,0,*5A
1507601110.22,356,10.5,73082.3,-8.71,-9.57,-9.57,0,*5E
1507601111.44,357,10.5,73078.3,-8.71,-9.57,-9.57,0,*5F
1507601112.67,358,10.5,73076.8,-8.71,-9.57,-9.57,0,*50
1507601113.88,359,10.44,73076.3,-8.71,-9.57,-9.67,0,*52
1507601115.11,360,10.5,73078.0,-8.73,-9.61,-9.71,0,*58
1507601116.32,361,10.5,73074.3,-8.71,-9.57,-9.67,0,*59
1507601117.57,362,10.44,73072.5,-8.73,-9.71,-9.61,0,*5A
1507601118.79,363,10.5,73074.5,-8.73,-9.71,-9.71,0,*5A
1507601119.97,364,10.44,73072.8,-8.71,-9.67,-9.75,0,*5C
1507601121.2,365,10.5,73080.5,-8.73,-9.71,-9.71,0,*5C
1507601122.39,366,10.5,73078.8,-8.71,-9.79,-9.71,0,*55
1507601123.58,367,10.44,73080.8,-8.71,-9.75,-9.75,0,*5C
1507601124.77,368,10.44,73080.5,-8.71,-9.71,-9.71,0,*53
1507601125.96,369,10.44,73088.3,-8.71,-9.71,-9.71,0,*52
1507601127.22,370,10.5,73094.0,-8.73,-9.83,-9.83,0,*58
1507601128.44,371,10.44,73096.5,-8.73,-9.75,-9.75,0,*59
1507601129.66,372,10.44,73080.8,-8.73,-9.71,-9.75,0,*5E
1507601130.85,373,10.5,73072.0,-8.71,-9.67,-9.71,0,*5E
1507601132.04,374,10.44,73070.5,-8.71,-9.79,-9.79,0,*5E
1507601133.23,375,10.44,73070.0,-8.71,-9.79,-9.79,0,*5F
1507601134.47,376,10.44,73066.5,-8.73,-9.75,-9.83,0,*57
1507601135.66,377,10.44,73080.8,-8.71,-9.71,-9.79,0,*55
1507601136.92,378,10.5,73080.3,-8.73,-9.83,-9.83,0,*50
1507601138.16,379,10.44,73082.3,-8.73,-9.83,-9.75,0,*58
1507601139.35,380,10.44,73082.3,-8.71,-9.71,-9.71,0,*55
1507601140.59,381,10.44,73076.3,-8.73,-9.75,-9.83,0,*5F
1507601141.79,382,10.5,73076.5,-8.71,-9.71,-9.79,0,*5F
1507601142.98,383,10.44,73070.5,-8.71,-9.71,-9.71,0,*56
1507601144.17,384,10.44,73074.5,-8.71,-9.79,-9.79,0,*51
1507601145.43,385,10.5,73082.0,-8.73,-9.83,-9.83,0,*52
1507601146.67,386,10.44,73076.8,-8.73,-9.83,-9.75,0,*58
1507601147.86,387,10.44,73082.0,-8.71,-9.71,-9.71,0,*52
1507601149.12,388,10.44,73084.0,-8.73,-9.83,-9.83,0,*5F
1507601150.38,389,10.44,73086.0,-8.73,-9.83,-9.83,0,*5E
1507601151.62,390,10.44,73088.8,-8.73,-9.75,-9.83,0,*5F
1507601152.81,391,10.5,73092.5,-8.71,-9.71,-9.79,0,*5D
1507601154.01,392,10.44,73090.0,-8.71,-9.71,-9.75,0,*52
1507601155.25,393,10.44,73094.8,-8.73,-9.75,-9.83,0,*5C
1507601156.48,394,10.5,73086.0,-8.73,-9.83,-9.75,0,*5B
1507601157.67,395,10.44,73092.3,-8.71,-9.79,-9.79,0,*51
1507601158.93,396,10.44,73090.0,-8.73,-9.83,-9.83,0,*50
1507601160.15,397,10.44,73094.8,-8.73,-9.75,-9.75,0,*51
1507601161.38,398,10.44,73076.3,-8.73,-9.83,-9.75,0,*57
1507601162.62,399,10.5,73078.5,-8.73,-9.75,-9.83,0,*56
1507601163.85,400,10.5,73076.8,-8.73,-9.71,-9.71,0,*58
1507601165.07,401,10.44,73068.0,-8.73,-9.71,-9.75,0,*5D
1507601166.29,402,10.5,73068.5,-8.73,-9.71,-9.71,0,*5A
1507601167.51,403,10.44,73070.0,-8.73,-9.71,-9.71,0,*5B
1507601168.72,404,10.44,73064.3,-8.73,-9.75,-9.71,0,*58
1507601169.95,405,10.44,73068.0,-8.73,-9.71,-9.71,0,*5D
1507601171.13,406,10.44,73066.8,-8.71,-9.67,-9.67,0,*5C
1507601172.37,407,10.5,73076.0,-8.73,-9.61,-9.71,0,*5E
1507601173.59,408,10.44,73080.8,-8.73,-9.71,-9.71,0,*50
1507601174.81,409,10.44,73090.8,-8.73,-9.71,-9.71,0,*51
1507601176.05,410,10.44,73094.3,-8.73,-9.61,-9.71,0,*58
1507601177.31,411,10.5,73100.0,-8.73,-9.61,-9.61,0,*58
1507601178.55,412,10.5,73098.0,-8.73,-9.61,-9.71,0,*5A
1507601179.77,413,10.44,73094.8,-8.73,-9.71,-9.75,0,*5E
1507601181.01,414,10.44,73094.3,-8.73,-9.71,-9.61,0,*5C
1507601182.2,415,10.44,73096.0,-8.71,-9.67,-9.67,0,*5E
1507601183.42,416,10.44,73100.5,-8.73,-9.71,-9.75,0,*5B
1507601184.66,417,10.44,73104.3,-8.73,-9.61,-9.75,0,*5B
1507601185.9,418,10.44,73102.5,-8.73,-9.71,-9.61,0,*50
1507601187.09,419,10.5,73102.5,-8.71,-9.67,-9.67,0,*52
1507601188.35,420,10.5,73102.0,-8.73,-9.61,-9.61,0,*5A
1507601189.61,421,10.44,73102.3,-8.73,-9.61,-9.61,0,*5B
1507601190.82,422,10.44,73104.8,-8.71,-9.67,-9.57,0,*59
1507601192.05,423,10.44,73098.5,-8.73,-9.61,-9.71,0,*58
1507601193.3,424,10.44,73106.3,-8.73,-9.71,-9.61,0,*5F
1507601194.52,425,10.44,73106.5,-8.73,-9.71,-9.71,0,*5F
1507601195.74,426,10.44,73096.0,-8.73,-9.71,-9.71,0,*5C
1507601196.98,427,10.5,73096.8,-8.73,-9.71,-9.61,0,*5C
1507601198.22,428,10.5,73102.3,-8.73,-9.61,-9.71,0,*53
1507601199.46,429,10.44,73082.8,-8.73,-9.71,-9.61,0,*52
1507601200.68,430,10.5,73084.5,-8.73,-9.71,-9.71,0,*5B
1507601201.89,431,10.44,73080.0,-8.71,-9.67,-9.57,0,*5B
1507601203.13,432,10.44,73080.3,-8.73,-9.61,-9.71,0,*58
1507601204.37,433,10.44,73084.3,-8.73,-9.71,-9.61,0,*59
1507601205.59,434,10.44,73086.3,-8.73,-9.71,-9.71,0,*5F
1507601206.84,435,10.5,73086.5,-8.73,-9.71,-9.61,0,*5F
1507601208.05,436,10.5,73088.0,-8.71,-9.67,-9.57,0,*5C
1507601209.23,437,10.5,73084.3,-8.71,-9.67,-9.67,0,*5E
1507601210.47,438,10.5,73082.8,-8.73,-9.83,-9.71,0,*5E
1507601211.68,439,10.44,73086.8,-8.71,-9.67,-9.57,0,*53
1507601212.91,440,10.44,73086.3,-8.73,-9.61,-9.71,0,*5D
1507601214.13,441,10.44,73074.3,-8.73,-9.71,-9.71,0,*5D
1507601215.39,442,10.44,73074.8,-8.73,-9.61,-9.61,0,*5E
1507601216.6,443,10.5,73072.8,-8.71,-9.67,-9.57,0,*5E
1507601217.82,444,10.44,73080.3,-8.73,-9.71,-9.71,0,*58
1507601219.08,445,10.44,73072.5,-8.73,-9.61,-9.61,0,*59
1507601220.29,446,10.5,73070.5,-8.71,-9.67,-9.57,0,*5B
1507601221.53,447,10.5,73076.5,-8.73,-9.61,-9.71,0,*5A
1507601222.74,448,10.44,73078.3,-8.71,-9.67,-9.57,0,*55
1507601224.0,449,10.44,73080.0,-8.73,-9.61,-9.61,0,*55
1507601225.24,450,10.44,73078.5,-8.73,-9.71,-9.61,0,*5C
1507601226.5,451,10.44,73078.3,-8.73,-9.61,-9.61,0,*5C
1507601227.74,452,10.44,73072.0,-8.73,-9.71,-9.61,0,*5E
1507601228.97,453,10.44,73068.0,-8.71,-9.57,-9.57,0,*5C
1507601230.21,454,10.44,73070.8,-8.73,-9.61,-9.71,0,*58
1507601231.45,455,10.44,73068.8,-8.73,-9.71,-9.61,0,*59
1507601232.7,456,10.44,73070.3,-8.73,-9.71,-9.61,0,*5A
1507601233.96,457,10.44,73070.3,-8.73,-9.61,-9.61,0,*5A
1507601235.22,458,10.44,73082.0,-8.73,-9.61,-9.61,0,*55
1507601236.48,459,10.44,73084.3,-8.73,-9.61,-9.61,0,*54
1507601237.74,460,10.5,73084.5,-8.73,-9.61,-9.61,0,*5E
1507601238.97,461,10.44,73086.3,-8.71,-9.57,-9.57,0,*5D
1507601240.19,462,10.5,73084.0,-8.71,-9.57,-9.57,0,*5E
1507601241.45,463,10.44,73078.8,-8.73,-9.61,-9.61,0,*5D
1507601242.71,464,10.44,73072.0,-8.73,-9.61,-9.61,0,*5A
1507601243.94,465,10.5,73070.5,-8.71,-9.57,-9.57,0,*59
1507601245.2,466,10.44,73070.3,-8.73,-9.61,-9.61,0,*58
1507601246.46,467,10.44,73072.3,-8.73,-9.61,-9.61,0,*59
1507601247.69,468,10.44,73072.5,-8.71,-9.57,-9.57,0,*54
1507601248.91,469,10.44,73082.8,-8.71,-9.57,-9.57,0,*55
1507601250.17,470,10.5,73088.0,-8.73,-9.57,-9.57,0,*5F
1507601251.42,471,10.5,73090.8,-8.73,-9.57,-9.57,0,*5E
1507601252.67,472,10.44,73088.0,-8.73,-9.57,-9.57,0,*5D
1507601253.91,473,10.44,73088.3,-8.71,-9.53,-9.53,0,*5E
1507601255.16,474,10.5,73092.3,-8.73,-9.57,-9.57,0,*5B
1507601256.4,475,10.44,73092.3,-8.71,-9.53,-9.53,0,*58
1507601257.66,476,10.44,73094.8,-8.73,-9.57,-9.57,0,*59
1507601258.91,477,10.44,73100.0,-8.73,-9.57,-9.61,0,*5D
1507601260.17,478,10.44,73100.5,-8.73,-9.57,-9.57,0,*57
1507601261.4,479,10.44,73100.3,-8.71,-9.57,-9.53,0,*50
1507601262.66,480,10.44,73094.5,-8.73,-9.61,-9.57,0,*55
1507601263.91,481,10.44,73092.3,-8.73,-9.61,-9.57,0,*54
1507601265.17,482,10.44,73088.5,-8.73,-9.61,-9.57,0,*57
1507601266.4,483,10.44,73096.5,-8.71,-9.57,-9.53,0,*55
1507601267.64,484,10.44,73098.3,-8.71,-9.57,-9.53,0,*52
1507601268.86,485,10.44,73098.5,-8.71,-9.57,-9.57,0,*57
1507601270.09,486,10.44,73092.0,-8.71,-9.57,-9.57,0,*54
1507601271.35,487,10.44,73088.8,-8.73,-9.61,-9.57,0,*52
1507601272.58,488,10.44,73088.5,-8.71,-9.57,-9.53,0,*5E
1507601273.82,489,10.44,73090.5,-8.71,-9.57,-9.53,0,*5F
1507601275.05,490,10.44,73094.3,-8.71,-9.57,-9.53,0,*57
1507601276.31,491,10.44,73088.8,-8.73,-9.61,-9.61,0,*50
1507601277.54,492,10.44,73088.5,-8.71,-9.57,-9.57,0,*51
1507601278.76,493,10.44,73090.3,-8.71,-9.57,-9.57,0,*50
1507601279.97,494,10.44,73084.3,-8.71,-9.67,-9.57,0,*54
1507601281.23,495,10.44,73084.0,-8.73,-9.61,-9.61,0,*54
1507601282.42,496,10.5,73084.0,-8.71,-9.67,-9.67,0,*55
1507601283.63,497,10.44,73080.5,-8.71,-9.61,-9.67,0,*52
1507601284.86,498,10.44,73082.5,-8.71,-9.57,-9.57,0,*5B
1507601286.12,499,10.44,73074.3,-8.73,-9.61,-9.61,0,*58
1507601287.38,500,10.44,73072.5,-8.73,-9.61,-9.61,0,*59
1507601288.59,501,10.44,73074.0,-8.71,-9.67,-9.57,0,*59
1507601289.85,502,10.44,73080.3,-8.73,-9.61,-9.61,0,*5B
1507601291.07,503,10.44,73082.5,-8.71,-9.57,-9.57,0,*58
1507601292.33,504,10.44,73074.8,-8.73,-9.61,-9.61,0,*5D
1507601293.56,505,10.5,73078.3,-8.71,-9.53,-9.57,0,*5A
1507601294.82,506,10.44,73082.3,-8.73,-9.61,-9.61,0,*5F
1507601296.05,507,10.44,73074.8,-8.71,-9.57,-9.57,0,*5C
1507601297.31,508,10.44,73074.0,-8.73,-9.61,-9.61,0,*51
1507601298.57,509,10.44,73080.0,-8.73,-9.61,-9.61,0,*50
1507601299.8,510,10.5,73088.3,-8.71,-9.57,-9.57,0,*5A
1507601301.05,511,10.44,73088.8,-8.73,-9.61,-9.57,0,*5C
1507601302.31,512,10.44,73090.5,-8.73,-9.61,-9.57,0,*5F
1507601303.55,513,10.44,73088.3,-8.71,-9.53,-9.53,0,*59
1507601304.8,514,10.44,73092.3,-8.73,-9.57,-9.57,0,*5C
1507601306.06,515,10.44,73086.5,-8.73,-9.57,-9.57,0,*5D
1507601307.31,516,10.44,73086.5,-8.73,-9.57,-9.57,0,*5E
1507601308.55,517,10.44,73094.8,-8.71,-9.53,-9.53,0,*5D
1507601309.78,518,10.44,73086.8,-8.71,-9.53,-9.53,0,*52
1507601311.01,519,10.5,73096.0,-8.71,-9.57,-9.57,0,*53
1507601312.27,520,10.5,73088.8,-8.73,-9.57,-9.57,0,*5B
1507601313.5,521,10.44,73086.3,-8.71,-9.53,-9.53,0,*58
1507601314.74,522,10.44,73092.8,-8.71,-9.53,-9.53,0,*5B
1507601315.98,523,10.44,73094.5,-8.71,-9.53,-9.49,0,*51
1507601317.21,524,10.44,73096.3,-8.71,-9.53,-9.53,0,*5D
1507601318.47,525,10.44,73096.5,-8.73,-9.53,-9.57,0,*5A
1507601319.73,526,10.44,73096.5,-8.73,-9.53,-9.57,0,*59
1507601320.97,527,10.5,73098.8,-8.71,-9.53,-9.53,0,*5E
1507601322.2,528,10.44,73094.8,-8.71,-9.53,-9.53,0,*51
1507601323.44,529,10.44,73090.3,-8.71,-9.53,-9.49,0,*5B
1507601324.67,530,10.44,73090.3,-8.71,-9.53,-9.49,0,*53
1507601325.91,531,10.44,73090.5,-8.71,-9.53,-9.49,0,*52
1507601327.14,532,10.44,73088.8,-8.71,-9.53,-9.49,0,*51
1507601328.38,533,10.44,73086.3,-8.71,-9.49,-9.53,0,*50
1507601329.62,534,10.44,73088.5,-8.71,-9.49,-9.49,0,*5C
1507601330.85,535,10.44,73090.5,-8.71,-9.53,-9.49,0,*56
1507601332.09,536,10.44,73092.5,-8.71,-9.53,-9.49,0,*55
1507601333.35,537,10.44,73090.8,-8.69,-9.49,-9.41,0,*5E
1507601334.61,538,10.44,73088.8,-8.69,-9.49,-9.49,0,*59